Regional Weather Roundup
Issued by NWS

Home | Current Version | Previous Version | Text Only | Print | Product List | Glossary Off
Versions: 1 2 3 4 5 6 7 8 9 10 11 12 13 14 15 16 17 18 19 20 21 22 23 24 25 26 27 28 29 30 31 32 33 34 35 36 37 38 39 40 41 42 43 44 45 46 47 48 49 50

000
ASUS44 KOUN 281010
RWROK

WEATHER ROUNDUP FOR OKLAHOMA
NATIONAL WEATHER SERVICE NORMAN OK
500 AM CDT SUN MAY 28 2017

NOTE: "FAIR" INDICATES FEW OR NO CLOUDS BELOW 12,000 FEET WITH NO
      SIGNIFICANT WEATHER AND/OR OBSTRUCTIONS TO VISIBILITY.

OKZ001>007-009>012-014-015-017-281100-
NORTHWEST OKLAHOMA AND THE PANHANDLE

CITY           SKY/WX    TMP DP  RH WIND       PRES   REMARKS
GAGE           CLEAR     55  51  86 NW7       30.05R
GUYMON         CLEAR     52  49  89 N9        30.12R
ENID/WOODRING  CLEAR     63  61  94 NW13      29.94R
$$

OKZ016-021>023-033>039-044-045-281100-
SOUTHWEST OKLAHOMA

CITY           SKY/WX    TMP DP  RH WIND       PRES   REMARKS
LAWTON/REGL    CLEAR     68  62  81 N13         N/A
LAWTON/FT SILL PTCLDY    67  63  85 N13       29.90R
FREDERICK      CLEAR     68  61  78 NE15      29.90R
CLINTON        CLEAR     61  57  87 N14       29.98F
HOBART         CLEAR     62  57  83 N10       29.95R
ALTUS AFB      CLEAR     66  56  71 N13       29.94R
$$

OKZ018>020-024>031-281100-
CENTRAL OKLAHOMA

CITY           SKY/WX    TMP DP  RH WIND       PRES   REMARKS
OKLAHOMA CITY  CLOUDY    65  61  87 N13       29.91R
OKC/WILEY POST CLOUDY    66  62  87 N14       29.92R
OKC/TINKER AFB CLOUDY    66  62  86 NW14      29.88R
STILLWATER     PTCLDY    63  61  93 NW9       29.91R
GUTHRIE        PTCLDY    65  62  90 N5        29.93R
$$

OKZ008-013-054>072-281100-
NORTHEAST OKLAHOMA

CITY           SKY/WX    TMP DP  RH WIND       PRES   REMARKS
TULSA          CLOUDY    65  62  90 NW5       29.84R
TULSA/JONES    CLOUDY    68  60  75 N7        29.84R
PONCA CITY     CLEAR     64  60  87 NW7       29.92R
BARTLESVILLE   CLOUDY    65  60  84 CALM      29.87R
MUSKOGEE       CLOUDY    69  63  81 N9        29.83R
$$

OKZ032-040>043-046>053-073>077-281100-
SOUTH CENTRAL/SOUTHEAST OKLAHOMA

CITY           SKY/WX    TMP DP  RH WIND       PRES   REMARKS
ARDMORE/DWNTWN CLOUDY    68  64  88 NE3       29.86R
MCALESTER      CLOUDY    71  66  84 CALM      29.83R
$$




USA.gov is the U.S. government's official web portal to all federal, state and local government web resources and services.